Location: Casteau
(50.5142°N, 4.0161°E)
Time: 19:41:04
(UTC+00:00)

Tiros 1 - Pass Details

Date: 03 August 2021
Orbit: 630 x 663 km, 48.4° (Epoch: 28 September)

Event Time Altitude Azimuth Distance (km) Brightness Sun altitude
Rises 22:18:19 0° 281° (W) 2,970 11.0 -19.3°
Reaches altitude 10° 22:20:55 10° 270° (W) 2,051 10.0 -19.5°
Enters shadow 22:24:50 28° 214° (SSW) 1,206 8.2 -19.7°
Maximum altitude 22:24:56 28° 211° (SSW) 1,205 - -19.7°
Drops below altitude 10° 22:28:54 10° 153° (SSE) 2,025 - -19.9°
Sets 22:31:27 0° 142° (SE) 2,925 - -20.1°
